Time,TemperatureF,DewpointF,PressureIn,WindDirection,WindDirectionDegrees,WindSpeedMPH,WindSpeedGustMPH,Humidity,HourlyPrecipIn,Conditions,Clouds,dailyrainin,SoftwareType,DateUTC
2013-12-06 00:01:00,64.9,64.0,30.01,South,178,6.0,10.0,97,0.00,,,0.00,WeatherCatV1.23B16,2013-12-06 05:01:00,
2013-12-06 00:06:00,64.9,64.0,30.01,South,173,13.0,13.0,97,0.00,,,0.01,WeatherCatV1.23B16,2013-12-06 05:06:00,
2013-12-06 00:11:00,64.9,64.0,30.01,SE,138,6.0,12.0,97,0.00,,,0.01,WeatherCatV1.23B16,2013-12-06 05:11:00,
2013-12-06 00:16:00,64.9,64.0,30.01,SSE,153,5.0,12.0,97,0.00,,,0.01,WeatherCatV1.23B16,2013-12-06 05:16:00,
2013-12-06 00:21:00,64.8,63.9,30.01,SSE,163,4.0,9.0,97,0.00,,,0.01,WeatherCatV1.23B16,2013-12-06 05:21:00,
2013-12-06 00:26:00,64.8,63.9,30.01,South,175,5.0,10.0,97,0.00,,,0.01,WeatherCatV1.23B16,2013-12-06 05:26:00,
2013-12-06 00:31:00,64.7,63.8,30.01,SSE,159,5.0,12.0,97,0.00,,,0.01,WeatherCatV1.23B16,2013-12-06 05:31:00,
2013-12-06 00:36:00,64.6,63.7,30.01,SSE,159,4.0,7.0,97,0.00,,,0.01,WeatherCatV1.23B16,2013-12-06 05:36:00,
2013-12-06 00:41:00,64.5,63.6,30.01,South,171,7.0,7.0,97,0.00,,,0.01,WeatherCatV1.23B16,2013-12-06 05:41:00,
2013-12-06 00:46:00,64.5,63.6,30.01,SSE,154,5.0,7.0,97,0.00,,,0.01,WeatherCatV1.23B16,2013-12-06 05:46:00,
2013-12-06 00:51:00,64.4,63.5,30.01,South,169,4.0,10.0,97,0.00,,,0.01,WeatherCatV1.23B16,2013-12-06 05:51:00,
2013-12-06 00:56:00,64.3,63.4,30.01,SSE,153,2.0,6.0,97,0.00,,,0.01,WeatherCatV1.23B16,2013-12-06 05:56:00,
2013-12-06 01:01:00,64.2,63.3,30.00,SSE,157,4.0,6.0,97,0.00,,,0.01,WeatherCatV1.23B16,2013-12-06 06:01:00,
2013-12-06 01:06:00,64.1,63.2,30.00,SSE,168,4.0,10.0,97,0.00,,,0.01,WeatherCatV1.23B16,2013-12-06 06:06:00,
2013-12-06 01:11:00,64.1,63.2,30.00,SSE,152,5.0,6.0,97,0.00,,,0.01,WeatherCatV1.23B16,2013-12-06 06:11:00,
2013-12-06 01:16:00,64.0,63.4,30.00,SE,144,4.0,7.0,98,0.00,,,0.01,WeatherCatV1.23B16,2013-12-06 06:16:00,
2013-12-06 01:21:00,64.0,63.4,30.00,SE,146,2.0,11.0,98,0.00,,,0.01,WeatherCatV1.23B16,2013-12-06 06:21:00,
2013-12-06 01:26:00,63.9,63.3,30.00,SE,140,4.0,9.0,98,0.00,,,0.01,WeatherCatV1.23B16,2013-12-06 06:26:00,
2013-12-06 01:31:00,63.9,63.3,29.99,SSE,149,6.0,8.0,98,0.00,,,0.01,WeatherCatV1.23B16,2013-12-06 06:31:00,
2013-12-06 01:37:00,63.9,63.3,29.99,SSE,161,7.0,7.0,98,0.00,,,0.01,WeatherCatV1.23B16,2013-12-06 06:37:00,
2013-12-06 01:42:00,63.8,63.2,29.99,SSE,150,4.0,7.0,98,0.00,,,0.01,WeatherCatV1.23B16,2013-12-06 06:42:00,
2013-12-06 01:47:00,63.8,63.2,29.99,SSE,154,4.0,9.0,98,0.00,,,0.01,WeatherCatV1.23B16,2013-12-06 06:47:00,
2013-12-06 01:52:00,63.8,63.2,29.99,SE,142,4.0,7.0,98,0.00,,,0.01,WeatherCatV1.23B16,2013-12-06 06:52:00,
2013-12-06 01:57:00,63.7,63.1,29.99,SSE,150,3.0,9.0,98,0.00,,,0.01,WeatherCatV1.23B16,2013-12-06 06:57:00,
2013-12-06 02:02:00,63.8,63.2,29.99,SSE,152,3.0,11.0,98,0.00,,,0.01,WeatherCatV1.23B16,2013-12-06 07:02:00,
2013-12-06 02:07:00,63.8,63.2,29.99,SSE,154,6.0,11.0,98,0.00,,,0.01,WeatherCatV1.23B16,2013-12-06 07:07:00,
2013-12-06 02:12:00,63.9,63.0,29.99,SSE,159,3.0,8.0,97,0.00,,,0.01,WeatherCatV1.23B16,2013-12-06 07:12:00,
2013-12-06 02:17:00,63.9,63.0,30.00,SSE,157,6.0,6.0,97,0.00,,,0.01,WeatherCatV1.23B16,2013-12-06 07:17:00,
2013-12-06 02:22:00,63.9,63.0,30.00,SSW,192,7.0,12.0,97,0.00,,,0.01,WeatherCatV1.23B16,2013-12-06 07:22:00,
2013-12-06 02:27:00,64.0,63.1,30.00,SSE,167,4.0,9.0,97,0.00,,,0.01,WeatherCatV1.23B16,2013-12-06 07:27:00,
2013-12-06 02:32:00,64.0,63.1,30.00,South,171,3.0,7.0,97,0.00,,,0.01,WeatherCatV1.23B16,2013-12-06 07:32:00,
2013-12-06 02:37:00,64.1,63.2,30.00,SSW,194,10.0,11.0,97,0.00,,,0.01,WeatherCatV1.23B16,2013-12-06 07:37:00,
2013-12-06 02:42:00,64.2,63.3,30.00,South,186,5.0,7.0,97,0.00,,,0.01,WeatherCatV1.23B16,2013-12-06 07:42:00,
2013-12-06 02:47:00,64.2,63.0,30.00,South,171,3.0,7.0,96,0.00,,,0.01,WeatherCatV1.23B16,2013-12-06 07:47:00,
2013-12-06 02:52:00,64.3,63.1,30.00,SSE,167,3.0,9.0,96,0.00,,,0.01,WeatherCatV1.23B16,2013-12-06 07:52:00,
2013-12-06 02:57:00,64.3,63.1,30.00,SSE,152,5.0,7.0,96,0.00,,,0.01,WeatherCatV1.23B16,2013-12-06 07:57:00,
2013-12-06 03:02:00,64.4,63.2,29.99,South,187,6.0,13.0,96,0.00,,,0.01,WeatherCatV1.23B16,2013-12-06 08:02:00,
2013-12-06 03:07:00,64.5,63.3,29.99,SSE,155,6.0,10.0,96,0.00,,,0.01,WeatherCatV1.23B16,2013-12-06 08:07:00,
2013-12-06 03:12:00,64.5,63.3,29.99,SSW,202,9.0,9.0,96,0.00,,,0.01,WeatherCatV1.23B16,2013-12-06 08:12:00,
2013-12-06 03:17:00,64.6,63.1,29.99,SSW,202,5.0,8.0,95,0.00,,,0.01,WeatherCatV1.23B16,2013-12-06 08:17:00,
2013-12-06 03:22:00,64.6,63.1,29.99,SSE,161,4.0,6.0,95,0.00,,,0.01,WeatherCatV1.23B16,2013-12-06 08:22:00,
2013-12-06 03:27:00,64.6,63.1,29.99,SSE,162,7.0,9.0,95,0.00,,,0.01,WeatherCatV1.23B16,2013-12-06 08:27:00,
2013-12-06 03:32:00,64.6,63.1,29.99,South,173,4.0,8.0,95,0.00,,,0.01,WeatherCatV1.23B16,2013-12-06 08:32:00,
2013-12-06 03:37:00,64.6,63.1,29.99,SSE,161,4.0,7.0,95,0.00,,,0.01,WeatherCatV1.23B16,2013-12-06 08:37:00,
2013-12-06 03:42:00,64.6,63.1,29.99,South,169,4.0,7.0,95,0.00,,,0.01,WeatherCatV1.23B16,2013-12-06 08:42:00,
2013-12-06 03:47:00,64.5,63.0,29.99,SSE,152,7.0,7.0,95,0.00,,,0.01,WeatherCatV1.23B16,2013-12-06 08:47:00,
2013-12-06 03:52:00,64.5,63.0,29.99,SSE,163,6.0,7.0,95,0.00,,,0.01,WeatherCatV1.23B16,2013-12-06 08:52:00,
2013-12-06 03:57:00,64.4,62.9,29.99,SSE,155,4.0,12.0,95,0.00,,,0.01,WeatherCatV1.23B16,2013-12-06 08:57:00,
2013-12-06 04:02:00,64.4,62.9,29.99,SSE,150,6.0,7.0,95,0.00,,,0.01,WeatherCatV1.23B16,2013-12-06 09:02:00,
2013-12-06 04:07:00,64.3,62.8,29.99,South,169,4.0,7.0,95,0.00,,,0.01,WeatherCatV1.23B16,2013-12-06 09:07:00,
2013-12-06 04:12:00,64.3,62.8,29.99,South,172,11.0,11.0,95,0.00,,,0.01,WeatherCatV1.23B16,2013-12-06 09:12:00,
2013-12-06 04:17:00,64.2,62.7,29.99,South,187,5.0,7.0,95,0.00,,,0.01,WeatherCatV1.23B16,2013-12-06 09:17:00,
2013-12-06 04:22:00,64.2,62.7,29.99,SSE,166,4.0,7.0,95,0.00,,,0.01,WeatherCatV1.23B16,2013-12-06 09:22:00,
2013-12-06 04:27:00,64.1,62.6,29.99,South,176,5.0,12.0,95,0.00,,,0.01,WeatherCatV1.23B16,2013-12-06 09:27:00,
2013-12-06 04:32:00,64.1,62.6,29.99,SSE,166,5.0,6.0,95,0.00,,,0.01,WeatherCatV1.23B16,2013-12-06 09:32:00,
2013-12-06 04:37:00,64.0,62.5,29.99,South,170,6.0,6.0,95,0.00,,,0.01,WeatherCatV1.23B16,2013-12-06 09:37:00,
2013-12-06 04:42:00,64.0,62.5,29.99,South,171,4.0,7.0,95,0.00,,,0.01,WeatherCatV1.23B16,2013-12-06 09:42:00,
2013-12-06 04:47:00,64.0,62.5,30.00,SSE,148,4.0,6.0,95,0.00,,,0.01,WeatherCatV1.23B16,2013-12-06 09:47:00,
2013-12-06 04:52:00,64.0,62.5,30.00,South,182,6.0,10.0,95,0.00,,,0.01,WeatherCatV1.23B16,2013-12-06 09:52:00,
2013-12-06 04:57:00,64.0,62.5,30.00,SSE,163,4.0,6.0,95,0.00,,,0.01,WeatherCatV1.23B16,2013-12-06 09:57:00,
2013-12-06 05:02:00,64.0,62.8,30.00,South,182,3.0,10.0,96,0.00,,,0.01,WeatherCatV1.23B16,2013-12-06 10:02:00,
2013-12-06 05:07:00,64.0,62.8,30.00,South,175,5.0,5.0,96,0.00,,,0.01,WeatherCatV1.23B16,2013-12-06 10:07:00,
2013-12-06 05:12:00,64.0,62.8,30.00,South,171,5.0,9.0,96,0.00,,,0.01,WeatherCatV1.23B16,2013-12-06 10:12:00,
2013-12-06 05:17:00,63.9,62.7,29.99,South,170,8.0,9.0,96,0.00,,,0.01,WeatherCatV1.23B16,2013-12-06 10:17:00,
2013-12-06 05:22:00,64.0,62.8,29.99,South,173,6.0,6.0,96,0.00,,,0.01,WeatherCatV1.23B16,2013-12-06 10:22:00,
2013-12-06 05:27:00,64.0,62.8,29.99,SSE,162,4.0,10.0,96,0.00,,,0.01,WeatherCatV1.23B16,2013-12-06 10:27:00,
2013-12-06 05:32:00,64.1,62.9,29.99,South,171,7.0,9.0,96,0.00,,,0.01,WeatherCatV1.23B16,2013-12-06 10:32:00,
2013-12-06 05:37:00,64.1,62.9,29.99,South,188,10.0,10.0,96,0.00,,,0.01,WeatherCatV1.23B16,2013-12-06 10:37:00,
2013-12-06 05:42:00,64.1,62.9,29.99,SSE,148,5.0,10.0,96,0.00,,,0.01,WeatherCatV1.23B16,2013-12-06 10:42:00,
2013-12-06 05:47:00,64.1,62.9,29.99,South,181,3.0,6.0,96,0.00,,,0.01,WeatherCatV1.23B16,2013-12-06 10:47:00,
2013-12-06 05:52:00,64.0,62.8,29.99,South,182,4.0,7.0,96,0.00,,,0.01,WeatherCatV1.23B16,2013-12-06 10:52:00,
2013-12-06 05:57:00,63.9,62.7,29.99,South,173,6.0,8.0,96,0.00,,,0.01,WeatherCatV1.23B16,2013-12-06 10:57:00,
2013-12-06 06:02:00,63.9,62.7,29.99,South,179,5.0,10.0,96,0.00,,,0.01,WeatherCatV1.23B16,2013-12-06 11:02:00,
2013-12-06 06:07:00,63.9,62.7,29.99,South,184,4.0,6.0,96,0.00,,,0.01,WeatherCatV1.23B16,2013-12-06 11:07:00,
2013-12-06 06:12:00,63.9,62.7,29.99,South,180,4.0,9.0,96,0.00,,,0.01,WeatherCatV1.23B16,2013-12-06 11:12:00,
2013-12-06 06:17:00,63.9,62.7,30.00,South,188,9.0,12.0,96,0.00,,,0.01,WeatherCatV1.23B16,2013-12-06 11:17:00,
2013-12-06 06:22:00,63.9,62.7,30.00,SSE,162,7.0,11.0,96,0.00,,,0.01,WeatherCatV1.23B16,2013-12-06 11:22:00,
2013-12-06 06:27:00,64.0,62.8,30.00,South,171,6.0,11.0,96,0.00,,,0.01,WeatherCatV1.23B16,2013-12-06 11:27:00,
2013-12-06 06:32:00,64.0,62.8,30.01,South,190,6.0,10.0,96,0.00,,,0.01,WeatherCatV1.23B16,2013-12-06 11:32:00,
2013-12-06 06:37:00,64.1,62.9,30.01,South,183,4.0,10.0,96,0.00,,,0.01,WeatherCatV1.23B16,2013-12-06 11:37:00,
2013-12-06 06:42:00,64.1,62.9,30.01,SSW,192,5.0,7.0,96,0.00,,,0.01,WeatherCatV1.23B16,2013-12-06 11:42:00,
2013-12-06 06:47:00,64.2,63.0,30.01,SSE,156,6.0,11.0,96,0.00,,,0.01,WeatherCatV1.23B16,2013-12-06 11:47:00,
2013-12-06 06:52:00,64.3,63.1,30.01,SSW,206,8.0,12.0,96,0.00,,,0.01,WeatherCatV1.23B16,2013-12-06 11:52:00,
2013-12-06 06:57:00,64.3,63.1,30.01,SSE,161,5.0,10.0,96,0.00,,,0.01,WeatherCatV1.23B16,2013-12-06 11:57:00,
2013-12-06 07:02:00,64.2,63.0,30.01,SE,138,5.0,10.0,96,0.00,,,0.01,WeatherCatV1.23B16,2013-12-06 12:02:00,
2013-12-06 07:07:00,64.2,63.0,30.01,SSE,159,7.0,7.0,96,0.00,,,0.01,WeatherCatV1.23B16,2013-12-06 12:07:00,
2013-12-06 07:12:00,64.1,62.9,30.01,South,172,7.0,10.0,96,0.00,,,0.01,WeatherCatV1.23B16,2013-12-06 12:12:00,
2013-12-06 07:17:00,64.1,62.9,30.01,South,173,6.0,10.0,96,0.00,,,0.01,WeatherCatV1.23B16,2013-12-06 12:17:00,
2013-12-06 07:22:00,64.0,62.8,30.01,SE,141,10.0,13.0,96,0.00,,,0.01,WeatherCatV1.23B16,2013-12-06 12:22:00,
2013-12-06 07:27:00,64.0,62.8,30.01,South,169,5.0,11.0,96,0.00,,,0.01,WeatherCatV1.23B16,2013-12-06 12:27:00,
2013-12-06 07:32:00,64.0,62.8,30.01,South,172,6.0,11.0,96,0.00,,,0.01,WeatherCatV1.23B16,2013-12-06 12:32:00,
2013-12-06 07:37:00,64.0,62.8,30.01,South,183,7.0,13.0,96,0.00,,,0.01,WeatherCatV1.23B16,2013-12-06 12:37:00,
2013-12-06 07:42:00,64.1,62.9,30.01,SE,144,6.0,12.0,96,0.00,,,0.01,WeatherCatV1.23B16,2013-12-06 12:42:00,
2013-12-06 07:47:00,64.2,63.0,30.02,South,174,10.0,12.0,96,0.00,,,0.01,WeatherCatV1.23B16,2013-12-06 12:47:00,
2013-12-06 07:52:00,64.4,63.2,30.02,South,183,5.0,9.0,96,0.00,,,0.01,WeatherCatV1.23B16,2013-12-06 12:52:00,
2013-12-06 07:57:00,64.5,63.3,30.02,SSE,161,5.0,10.0,96,0.00,,,0.01,WeatherCatV1.23B16,2013-12-06 12:57:00,
2013-12-06 08:02:00,64.7,63.5,30.02,SSW,202,10.0,16.0,96,0.00,,,0.01,WeatherCatV1.23B16,2013-12-06 13:02:00,
2013-12-06 08:07:00,64.8,63.3,30.02,SSE,150,7.0,12.0,95,0.00,,,0.01,WeatherCatV1.23B16,2013-12-06 13:07:00,
2013-12-06 08:12:00,65.0,63.5,30.02,SSE,158,7.0,14.0,95,0.00,,,0.01,WeatherCatV1.23B16,2013-12-06 13:12:00,
2013-12-06 08:17:00,65.3,63.8,30.03,SSE,163,7.0,10.0,95,0.00,,,0.01,WeatherCatV1.23B16,2013-12-06 13:17:00,
2013-12-06 08:22:00,65.6,63.8,30.03,SSE,163,10.0,12.0,94,0.00,,,0.01,WeatherCatV1.23B16,2013-12-06 13:22:00,
2013-12-06 08:27:00,65.9,64.1,30.03,South,169,7.0,11.0,94,0.00,,,0.01,WeatherCatV1.23B16,2013-12-06 13:27:00,
2013-12-06 08:32:00,66.1,64.0,30.03,South,186,7.0,13.0,93,0.00,,,0.01,WeatherCatV1.23B16,2013-12-06 13:32:00,
2013-12-06 08:37:00,66.3,64.2,30.03,SE,146,9.0,15.0,93,0.00,,,0.01,WeatherCatV1.23B16,2013-12-06 13:37:00,
2013-12-06 08:42:00,66.4,64.3,30.03,SSE,149,4.0,9.0,93,0.00,,,0.01,WeatherCatV1.23B16,2013-12-06 13:42:00,
2013-12-06 08:47:00,66.6,64.2,30.04,South,179,6.0,10.0,92,0.00,,,0.01,WeatherCatV1.23B16,2013-12-06 13:47:00,
2013-12-06 08:52:00,66.7,64.3,30.04,SSE,165,11.0,13.0,92,0.00,,,0.01,WeatherCatV1.23B16,2013-12-06 13:52:00,
2013-12-06 08:57:00,66.8,64.1,30.04,SSW,194,7.0,14.0,91,0.00,,,0.01,WeatherCatV1.23B16,2013-12-06 13:57:00,
2013-12-06 09:02:00,67.0,64.3,30.04,SSE,162,11.0,11.0,91,0.00,,,0.01,WeatherCatV1.23B16,2013-12-06 14:02:00,
2013-12-06 09:07:00,67.2,64.5,30.04,SSW,203,6.0,12.0,91,0.00,,,0.01,WeatherCatV1.23B16,2013-12-06 14:07:00,
2013-12-06 09:12:00,67.4,64.4,30.04,South,173,2.0,6.0,90,0.00,,,0.01,WeatherCatV1.23B16,2013-12-06 14:12:00,
2013-12-06 09:17:00,67.6,64.6,30.05,South,169,6.0,7.0,90,0.00,,,0.01,WeatherCatV1.23B16,2013-12-06 14:17:00,
2013-12-06 09:22:00,67.8,64.4,30.05,South,184,7.0,16.0,89,0.00,,,0.01,WeatherCatV1.23B16,2013-12-06 14:22:00,
2013-12-06 09:27:00,68.0,64.6,30.05,South,182,15.0,15.0,89,0.00,,,0.01,WeatherCatV1.23B16,2013-12-06 14:27:00,
2013-12-06 09:32:00,68.3,64.9,30.05,SSW,192,4.0,11.0,89,0.00,,,0.01,WeatherCatV1.23B16,2013-12-06 14:32:00,
2013-12-06 09:37:00,68.7,65.0,30.05,SSE,168,10.0,10.0,88,0.00,,,0.01,WeatherCatV1.23B16,2013-12-06 14:37:00,
2013-12-06 09:42:00,68.9,64.9,30.05,South,178,6.0,12.0,87,0.00,,,0.01,WeatherCatV1.23B16,2013-12-06 14:42:00,
2013-12-06 09:47:00,69.0,64.6,30.05,South,169,5.0,13.0,86,0.00,,,0.01,WeatherCatV1.23B16,2013-12-06 14:47:00,
2013-12-06 09:52:00,69.2,64.8,30.05,SSE,165,13.0,13.0,86,0.00,,,0.01,WeatherCatV1.23B16,2013-12-06 14:52:00,
2013-12-06 09:57:00,69.5,65.1,30.05,South,177,5.0,14.0,86,0.00,,,0.01,WeatherCatV1.23B16,2013-12-06 14:57:00,
2013-12-06 10:02:00,69.9,65.2,30.05,South,180,12.0,19.0,85,0.00,,,0.01,WeatherCatV1.23B16,2013-12-06 15:02:00,
2013-12-06 10:07:00,70.3,65.2,30.05,SW,221,4.0,14.0,84,0.00,,,0.01,WeatherCatV1.23B16,2013-12-06 15:07:00,
2013-12-06 10:12:00,70.8,65.7,30.05,South,185,10.0,11.0,84,0.00,,,0.01,WeatherCatV1.23B16,2013-12-06 15:12:00,
2013-12-06 10:17:00,71.3,65.9,30.06,South,181,16.0,16.0,83,0.00,,,0.01,WeatherCatV1.23B16,2013-12-06 15:17:00,
2013-12-06 10:22:00,71.3,65.5,30.06,South,188,8.0,11.0,82,0.00,,,0.01,WeatherCatV1.23B16,2013-12-06 15:22:00,
2013-12-06 10:27:00,71.4,65.6,30.06,South,169,4.0,12.0,82,0.00,,,0.01,WeatherCatV1.23B16,2013-12-06 15:27:00,
2013-12-06 10:32:00,71.5,65.7,30.05,South,171,6.0,15.0,82,0.00,,,0.01,WeatherCatV1.23B16,2013-12-06 15:32:00,
2013-12-06 10:37:00,71.7,65.9,30.05,SW,233,5.0,13.0,82,0.00,,,0.01,WeatherCatV1.23B16,2013-12-06 15:37:00,
2013-12-06 10:42:00,71.9,65.7,30.05,South,188,14.0,21.0,81,0.00,,,0.01,WeatherCatV1.23B16,2013-12-06 15:42:00,
2013-12-06 10:47:00,71.9,65.7,30.05,South,179,10.0,14.0,81,0.00,,,0.01,WeatherCatV1.23B16,2013-12-06 15:47:00,
2013-12-06 10:52:00,72.2,66.0,30.05,SSW,200,11.0,14.0,81,0.00,,,0.01,WeatherCatV1.23B16,2013-12-06 15:52:00,
2013-12-06 10:57:00,72.7,66.5,30.05,SSE,160,11.0,18.0,81,0.00,,,0.01,WeatherCatV1.23B16,2013-12-06 15:57:00,
2013-12-06 11:02:00,73.0,66.4,30.05,South,169,5.0,15.0,80,0.00,,,0.01,WeatherCatV1.23B16,2013-12-06 16:02:00,
2013-12-06 11:07:00,73.4,66.8,30.05,South,185,10.0,12.0,80,0.00,,,0.01,WeatherCatV1.23B16,2013-12-06 16:07:00,
2013-12-06 11:12:00,73.7,66.8,30.05,South,169,11.0,17.0,79,0.00,,,0.01,WeatherCatV1.23B16,2013-12-06 16:12:00,
2013-12-06 11:17:00,73.9,67.0,30.04,SSE,163,7.0,10.0,79,0.00,,,0.01,WeatherCatV1.23B16,2013-12-06 16:17:00,
2013-12-06 11:22:00,74.2,66.9,30.04,South,180,13.0,17.0,78,0.00,,,0.01,WeatherCatV1.23B16,2013-12-06 16:22:00,
2013-12-06 11:27:00,74.4,66.7,30.04,South,191,10.0,16.0,77,0.00,,,0.01,WeatherCatV1.23B16,2013-12-06 16:27:00,
2013-12-06 11:32:00,74.3,67.0,30.04,SSE,168,12.0,12.0,78,0.00,,,0.01,WeatherCatV1.23B16,2013-12-06 16:32:00,
2013-12-06 11:37:00,74.1,66.8,30.04,SSE,147,14.0,22.0,78,0.00,,,0.01,WeatherCatV1.23B16,2013-12-06 16:37:00,
2013-12-06 11:42:00,74.0,66.7,30.04,SSE,155,10.0,18.0,78,0.00,,,0.01,WeatherCatV1.23B16,2013-12-06 16:42:00,
2013-12-06 11:47:00,74.1,67.2,30.03,SSW,202,11.0,14.0,79,0.00,,,0.01,WeatherCatV1.23B16,2013-12-06 16:47:00,
2013-12-06 11:52:00,74.3,67.0,30.03,SW,225,3.0,12.0,78,0.00,,,0.01,WeatherCatV1.23B16,2013-12-06 16:52:00,
2013-12-06 11:57:00,74.6,67.3,30.03,SE,146,12.0,13.0,78,0.00,,,0.01,WeatherCatV1.23B16,2013-12-06 16:57:00,
2013-12-06 12:02:00,74.7,67.4,30.02,SSW,196,8.0,15.0,78,0.00,,,0.01,WeatherCatV1.23B16,2013-12-06 17:02:00,
2013-12-06 12:07:00,75.0,67.3,30.02,SW,218,6.0,17.0,77,0.00,,,0.01,WeatherCatV1.23B16,2013-12-06 17:07:00,
2013-12-06 12:12:00,75.1,67.4,30.02,South,178,10.0,15.0,77,0.00,,,0.01,WeatherCatV1.23B16,2013-12-06 17:12:00,
2013-12-06 12:17:00,75.1,67.8,30.02,SE,145,9.0,14.0,78,0.00,,,0.01,WeatherCatV1.23B16,2013-12-06 17:17:00,
2013-12-06 12:22:00,75.2,67.5,30.02,South,172,11.0,12.0,77,0.00,,,0.01,WeatherCatV1.23B16,2013-12-06 17:22:00,
2013-12-06 12:27:00,75.2,67.1,30.02,SSE,157,15.0,24.0,76,0.00,,,0.01,WeatherCatV1.23B16,2013-12-06 17:27:00,
2013-12-06 12:32:00,75.1,67.0,30.01,SSE,159,6.0,15.0,76,0.00,,,0.01,WeatherCatV1.23B16,2013-12-06 17:32:00,
2013-12-06 12:37:00,75.2,67.1,30.01,South,188,11.0,15.0,76,0.00,,,0.01,WeatherCatV1.23B16,2013-12-06 17:37:00,
2013-12-06 12:42:00,75.3,67.6,30.01,SE,144,11.0,15.0,77,0.00,,,0.01,WeatherCatV1.23B16,2013-12-06 17:42:00,
2013-12-06 12:47:00,75.6,67.5,30.00,SSE,160,5.0,18.0,76,0.00,,,0.01,WeatherCatV1.23B16,2013-12-06 17:47:00,
2013-12-06 12:52:00,75.5,67.4,30.00,SSW,205,11.0,18.0,76,0.00,,,0.01,WeatherCatV1.23B16,2013-12-06 17:52:00,
2013-12-06 12:57:00,75.5,67.4,30.00,SSE,165,10.0,18.0,76,0.00,,,0.01,WeatherCatV1.23B16,2013-12-06 17:57:00,
2013-12-06 13:02:00,75.4,67.3,29.99,SSE,157,14.0,18.0,76,0.00,,,0.01,WeatherCatV1.23B16,2013-12-06 18:02:00,
2013-12-06 13:07:00,75.5,67.4,29.99,SSE,159,12.0,22.0,76,0.00,,,0.01,WeatherCatV1.23B16,2013-12-06 18:07:00,
2013-12-06 13:12:00,75.7,67.2,29.99,SSW,198,15.0,15.0,75,0.00,,,0.01,WeatherCatV1.23B16,2013-12-06 18:12:00,
2013-12-06 13:17:00,75.7,66.8,29.99,South,187,17.0,17.0,74,0.00,,,0.01,WeatherCatV1.23B16,2013-12-06 18:17:00,
2013-12-06 13:22:00,75.8,66.9,29.99,SSW,209,11.0,16.0,74,0.00,,,0.01,WeatherCatV1.23B16,2013-12-06 18:22:00,
2013-12-06 13:27:00,75.9,66.6,29.99,South,183,16.0,21.0,73,0.00,,,0.01,WeatherCatV1.23B16,2013-12-06 18:27:00,
2013-12-06 13:32:00,76.0,66.7,29.98,SW,229,10.0,15.0,73,0.00,,,0.01,WeatherCatV1.23B16,2013-12-06 18:32:00,
2013-12-06 13:37:00,76.2,66.9,29.98,SSW,205,9.0,13.0,73,0.00,,,0.01,WeatherCatV1.23B16,2013-12-06 18:37:00,
2013-12-06 13:42:00,76.3,66.6,29.98,SW,222,11.0,21.0,72,0.00,,,0.01,WeatherCatV1.23B16,2013-12-06 18:42:00,
2013-12-06 13:47:00,76.2,66.5,29.97,SSE,168,4.0,19.0,72,0.00,,,0.01,WeatherCatV1.23B16,2013-12-06 18:47:00,
2013-12-06 13:52:00,76.3,66.6,29.97,SSW,197,2.0,12.0,72,0.00,,,0.01,WeatherCatV1.23B16,2013-12-06 18:52:00,
2013-12-06 13:57:00,76.5,66.8,29.97,South,176,10.0,11.0,72,0.00,,,0.01,WeatherCatV1.23B16,2013-12-06 18:57:00,
2013-12-06 14:02:00,76.5,66.8,29.96,SSE,159,10.0,11.0,72,0.00,,,0.01,WeatherCatV1.23B16,2013-12-06 19:02:00,
2013-12-06 14:07:00,76.5,66.8,29.96,SSW,196,5.0,17.0,72,0.00,,,0.01,WeatherCatV1.23B16,2013-12-06 19:07:00,
2013-12-06 14:12:00,76.4,66.3,29.96,South,169,13.0,20.0,71,0.00,,,0.01,WeatherCatV1.23B16,2013-12-06 19:12:00,
2013-12-06 14:17:00,76.3,66.2,29.96,SSW,200,16.0,19.0,71,0.00,,,0.01,WeatherCatV1.23B16,2013-12-06 19:17:00,
2013-12-06 14:22:00,76.3,66.2,29.96,South,172,11.0,22.0,71,0.00,,,0.01,WeatherCatV1.23B16,2013-12-06 19:22:00,
2013-12-06 14:27:00,76.3,66.2,29.96,SSW,208,10.0,11.0,71,0.00,,,0.01,WeatherCatV1.23B16,2013-12-06 19:27:00,
2013-12-06 14:32:00,76.4,66.3,29.96,South,190,17.0,21.0,71,0.00,,,0.01,WeatherCatV1.23B16,2013-12-06 19:32:00,
2013-12-06 14:37:00,76.5,66.4,29.96,South,175,10.0,16.0,71,0.00,,,0.01,WeatherCatV1.23B16,2013-12-06 19:37:00,
2013-12-06 14:42:00,76.6,66.5,29.96,SSE,163,8.0,15.0,71,0.00,,,0.01,WeatherCatV1.23B16,2013-12-06 19:42:00,
2013-12-06 14:47:00,76.7,67.4,29.95,South,176,8.0,11.0,73,0.00,,,0.01,WeatherCatV1.23B16,2013-12-06 19:47:00,
2013-12-06 14:52:00,76.6,67.3,29.95,South,188,9.0,17.0,73,0.00,,,0.01,WeatherCatV1.23B16,2013-12-06 19:52:00,
2013-12-06 14:57:00,76.6,67.3,29.95,SSE,148,6.0,13.0,73,0.00,,,0.01,WeatherCatV1.23B16,2013-12-06 19:57:00,
2013-12-06 15:02:00,76.5,67.6,29.95,South,169,9.0,14.0,74,0.00,,,0.01,WeatherCatV1.23B16,2013-12-06 20:02:00,
2013-12-06 15:07:00,76.4,67.1,29.95,SSE,157,6.0,13.0,73,0.00,,,0.01,WeatherCatV1.23B16,2013-12-06 20:07:00,
2013-12-06 15:12:00,76.2,67.3,29.95,South,188,14.0,18.0,74,0.00,,,0.01,WeatherCatV1.23B16,2013-12-06 20:12:00,
2013-12-06 15:17:00,76.0,66.7,29.95,SSE,155,6.0,16.0,73,0.00,,,0.01,WeatherCatV1.23B16,2013-12-06 20:17:00,
2013-12-06 15:22:00,75.9,66.6,29.95,South,172,5.0,20.0,73,0.00,,,0.01,WeatherCatV1.23B16,2013-12-06 20:22:00,
2013-12-06 15:27:00,75.8,66.5,29.95,South,169,10.0,16.0,73,0.00,,,0.01,WeatherCatV1.23B16,2013-12-06 20:27:00,
2013-12-06 15:32:00,75.7,66.4,29.95,South,181,9.0,17.0,73,0.00,,,0.01,WeatherCatV1.23B16,2013-12-06 20:32:00,
2013-12-06 15:37:00,75.7,66.8,29.95,SSE,163,12.0,14.0,74,0.00,,,0.01,WeatherCatV1.23B16,2013-12-06 20:37:00,
2013-12-06 15:42:00,75.7,66.8,29.95,SSE,153,9.0,11.0,74,0.00,,,0.01,WeatherCatV1.23B16,2013-12-06 20:42:00,
2013-12-06 15:47:00,75.7,66.8,29.95,South,186,7.0,13.0,74,0.00,,,0.01,WeatherCatV1.23B16,2013-12-06 20:47:00,
2013-12-06 15:52:00,75.6,66.7,29.95,South,188,6.0,19.0,74,0.00,,,0.01,WeatherCatV1.23B16,2013-12-06 20:52:00,
2013-12-06 15:57:00,75.6,66.7,29.95,South,180,13.0,15.0,74,0.00,,,0.01,WeatherCatV1.23B16,2013-12-06 20:57:00,
2013-12-06 16:02:00,75.5,66.6,29.95,South,173,5.0,12.0,74,0.00,,,0.01,WeatherCatV1.23B16,2013-12-06 21:02:00,
2013-12-06 16:07:00,75.4,66.5,29.95,South,186,10.0,15.0,74,0.00,,,0.01,WeatherCatV1.23B16,2013-12-06 21:07:00,
2013-12-06 16:12:00,75.3,66.4,29.95,South,182,7.0,11.0,74,0.00,,,0.01,WeatherCatV1.23B16,2013-12-06 21:12:00,
2013-12-06 16:17:00,75.2,66.3,29.95,SSE,162,5.0,10.0,74,0.00,,,0.01,WeatherCatV1.23B16,2013-12-06 21:17:00,
2013-12-06 16:22:00,75.1,66.2,29.95,SE,144,4.0,11.0,74,0.00,,,0.01,WeatherCatV1.23B16,2013-12-06 21:22:00,
2013-12-06 16:27:00,75.0,66.1,29.95,SSE,164,9.0,12.0,74,0.00,,,0.01,WeatherCatV1.23B16,2013-12-06 21:27:00,
2013-12-06 16:32:00,74.9,66.0,29.96,South,184,9.0,12.0,74,0.00,,,0.01,WeatherCatV1.23B16,2013-12-06 21:32:00,
2013-12-06 16:37:00,74.7,65.8,29.96,South,173,6.0,11.0,74,0.00,,,0.01,WeatherCatV1.23B16,2013-12-06 21:37:00,
2013-12-06 16:42:00,74.6,65.8,29.96,SSE,168,10.0,10.0,74,0.00,,,0.01,WeatherCatV1.23B16,2013-12-06 21:42:00,
2013-12-06 16:47:00,74.5,65.7,29.96,South,190,5.0,12.0,74,0.00,,,0.01,WeatherCatV1.23B16,2013-12-06 21:47:00,
2013-12-06 16:52:00,74.4,65.6,29.96,SSW,194,5.0,13.0,74,0.00,,,0.01,WeatherCatV1.23B16,2013-12-06 21:52:00,
2013-12-06 16:57:00,74.3,65.5,29.96,SSE,154,7.0,14.0,74,0.00,,,0.01,WeatherCatV1.23B16,2013-12-06 21:57:00,
2013-12-06 17:02:00,74.1,65.3,29.96,South,184,7.0,14.0,74,0.00,,,0.01,WeatherCatV1.23B16,2013-12-06 22:02:00,
2013-12-06 17:07:00,73.9,65.1,29.96,SSW,193,8.0,12.0,74,0.00,,,0.01,WeatherCatV1.23B16,2013-12-06 22:07:00,
2013-12-06 17:12:00,73.8,65.4,29.96,South,178,6.0,6.0,75,0.00,,,0.01,WeatherCatV1.23B16,2013-12-06 22:12:00,
2013-12-06 17:17:00,73.7,65.3,29.96,South,182,5.0,9.0,75,0.00,,,0.01,WeatherCatV1.23B16,2013-12-06 22:17:00,
2013-12-06 17:22:00,73.5,65.1,29.96,SSE,167,6.0,7.0,75,0.00,,,0.01,WeatherCatV1.23B16,2013-12-06 22:22:00,
2013-12-06 17:27:00,73.4,65.4,29.96,SSE,154,4.0,7.0,76,0.00,,,0.01,WeatherCatV1.23B16,2013-12-06 22:27:00,
2013-12-06 17:32:00,73.3,65.3,29.96,SSE,165,4.0,7.0,76,0.00,,,0.01,WeatherCatV1.23B16,2013-12-06 22:32:00,
2013-12-06 17:37:00,73.0,65.0,29.96,SSE,161,4.0,9.0,76,0.00,,,0.01,WeatherCatV1.23B16,2013-12-06 22:37:00,
2013-12-06 17:42:00,72.9,65.2,29.96,SSE,162,5.0,11.0,77,0.00,,,0.01,WeatherCatV1.23B16,2013-12-06 22:42:00,
2013-12-06 17:47:00,72.7,65.1,29.96,SSW,196,3.0,6.0,77,0.00,,,0.01,WeatherCatV1.23B16,2013-12-06 22:47:00,
2013-12-06 17:52:00,72.6,65.3,29.96,SSE,161,3.0,9.0,78,0.00,,,0.01,WeatherCatV1.23B16,2013-12-06 22:52:00,
2013-12-06 17:57:00,72.4,65.1,29.96,South,183,7.0,10.0,78,0.00,,,0.01,WeatherCatV1.23B16,2013-12-06 22:57:00,
2013-12-06 18:02:00,72.2,65.3,29.97,SSE,160,4.0,7.0,79,0.00,,,0.01,WeatherCatV1.23B16,2013-12-06 23:02:00,
2013-12-06 18:07:00,72.1,65.2,29.97,South,175,5.0,9.0,79,0.00,,,0.01,WeatherCatV1.23B16,2013-12-06 23:07:00,
2013-12-06 18:12:00,72.1,65.6,29.97,SSE,153,7.0,10.0,80,0.00,,,0.01,WeatherCatV1.23B16,2013-12-06 23:12:00,
2013-12-06 18:17:00,72.0,65.5,29.97,SSE,147,7.0,11.0,80,0.00,,,0.01,WeatherCatV1.23B16,2013-12-06 23:17:00,
2013-12-06 18:22:00,72.0,65.5,29.97,South,184,5.0,11.0,80,0.00,,,0.01,WeatherCatV1.23B16,2013-12-06 23:22:00,
2013-12-06 18:27:00,71.9,65.4,29.97,South,187,3.0,7.0,80,0.00,,,0.01,WeatherCatV1.23B16,2013-12-06 23:27:00,
2013-12-06 18:32:00,71.7,65.2,29.97,South,184,4.0,6.0,80,0.00,,,0.01,WeatherCatV1.23B16,2013-12-06 23:32:00,
2013-12-06 18:37:00,71.7,65.2,29.97,South,180,7.0,8.0,80,0.00,,,0.01,WeatherCatV1.23B16,2013-12-06 23:37:00,
2013-12-06 18:42:00,71.5,65.3,29.97,South,172,7.0,7.0,81,0.00,,,0.01,WeatherCatV1.23B16,2013-12-06 23:42:00,
2013-12-06 18:47:00,71.5,65.3,29.97,South,173,3.0,7.0,81,0.00,,,0.01,WeatherCatV1.23B16,2013-12-06 23:47:00,
2013-12-06 18:52:00,71.3,65.2,29.97,SSE,162,4.0,9.0,81,0.00,,,0.01,WeatherCatV1.23B16,2013-12-06 23:52:00,
2013-12-06 18:57:00,71.3,65.2,29.97,SSE,160,5.0,7.0,81,0.00,,,0.01,WeatherCatV1.23B16,2013-12-06 23:57:00,
2013-12-06 19:02:00,71.3,65.5,29.97,SSE,168,10.0,10.0,82,0.00,,,0.01,WeatherCatV1.23B16,2013-12-07 00:02:00,
2013-12-06 19:07:00,71.3,65.5,29.97,South,169,2.0,10.0,82,0.00,,,0.01,WeatherCatV1.23B16,2013-12-07 00:07:00,
2013-12-06 19:12:00,71.3,65.5,29.97,South,175,9.0,9.0,82,0.00,,,0.01,WeatherCatV1.23B16,2013-12-07 00:12:00,
2013-12-06 19:17:00,71.3,65.5,29.96,SSW,194,4.0,9.0,82,0.00,,,0.01,WeatherCatV1.23B16,2013-12-07 00:17:00,
2013-12-06 19:22:00,71.2,65.4,29.96,SSE,165,4.0,7.0,82,0.00,,,0.01,WeatherCatV1.23B16,2013-12-07 00:22:00,
2013-12-06 19:27:00,71.1,65.3,29.96,SSE,164,2.0,8.0,82,0.00,,,0.01,WeatherCatV1.23B16,2013-12-07 00:27:00,
2013-12-06 19:32:00,71.0,65.2,29.97,SSE,157,3.0,6.0,82,0.00,,,0.01,WeatherCatV1.23B16,2013-12-07 00:32:00,
2013-12-06 19:37:00,70.8,65.0,29.97,South,179,8.0,10.0,82,0.00,,,0.01,WeatherCatV1.23B16,2013-12-07 00:37:00,
2013-12-06 19:42:00,70.7,64.9,29.97,South,179,4.0,5.0,82,0.00,,,0.01,WeatherCatV1.23B16,2013-12-07 00:42:00,
2013-12-06 19:47:00,70.6,65.2,29.97,SSE,168,3.0,6.0,83,0.00,,,0.01,WeatherCatV1.23B16,2013-12-07 00:47:00,
2013-12-06 19:52:00,70.4,65.0,29.97,SSE,154,3.0,4.0,83,0.00,,,0.01,WeatherCatV1.23B16,2013-12-07 00:52:00,
2013-12-06 19:57:00,70.3,64.9,29.97,SSE,153,4.0,6.0,83,0.00,,,0.01,WeatherCatV1.23B16,2013-12-07 00:57:00,
2013-12-06 20:02:00,70.1,65.0,29.97,SSE,157,3.0,7.0,84,0.00,,,0.01,WeatherCatV1.23B16,2013-12-07 01:02:00,
2013-12-06 20:07:00,69.9,64.8,29.97,SSE,155,4.0,5.0,84,0.00,,,0.01,WeatherCatV1.23B16,2013-12-07 01:07:00,
2013-12-06 20:12:00,69.9,64.8,29.97,SSE,153,3.0,9.0,84,0.00,,,0.01,WeatherCatV1.23B16,2013-12-07 01:12:00,
2013-12-06 20:17:00,69.8,65.1,29.97,SSW,192,4.0,7.0,85,0.00,,,0.01,WeatherCatV1.23B16,2013-12-07 01:17:00,
2013-12-06 20:22:00,69.7,65.0,29.97,SSE,166,4.0,11.0,85,0.00,,,0.01,WeatherCatV1.23B16,2013-12-07 01:22:00,
2013-12-06 20:27:00,69.7,65.0,29.97,South,172,5.0,10.0,85,0.00,,,0.01,WeatherCatV1.23B16,2013-12-07 01:27:00,
2013-12-06 20:32:00,69.6,64.9,29.97,SSE,160,9.0,9.0,85,0.00,,,0.01,WeatherCatV1.23B16,2013-12-07 01:32:00,
2013-12-06 20:37:00,69.5,65.1,29.97,South,178,9.0,9.0,86,0.00,,,0.01,WeatherCatV1.23B16,2013-12-07 01:37:00,
2013-12-06 20:42:00,69.4,65.0,29.97,SSE,157,7.0,7.0,86,0.00,,,0.01,WeatherCatV1.23B16,2013-12-07 01:42:00,
2013-12-06 20:47:00,69.4,65.0,29.97,SSE,168,6.0,11.0,86,0.00,,,0.01,WeatherCatV1.23B16,2013-12-07 01:47:00,
2013-12-06 20:52:00,69.3,64.9,29.97,SSE,150,5.0,7.0,86,0.00,,,0.01,WeatherCatV1.23B16,2013-12-07 01:52:00,
2013-12-06 20:57:00,69.3,64.9,29.97,SSW,192,5.0,8.0,86,0.00,,,0.01,WeatherCatV1.23B16,2013-12-07 01:57:00,
2013-12-06 21:02:00,69.2,64.8,29.97,South,171,3.0,10.0,86,0.00,,,0.01,WeatherCatV1.23B16,2013-12-07 02:02:00,
2013-12-06 21:07:00,69.2,65.2,29.97,SSE,150,3.0,9.0,87,0.00,,,0.01,WeatherCatV1.23B16,2013-12-07 02:07:00,
2013-12-06 21:12:00,69.1,65.1,29.97,SSE,163,2.0,5.0,87,0.00,,,0.01,WeatherCatV1.23B16,2013-12-07 02:12:00,
2013-12-06 21:17:00,69.0,65.0,29.97,SSE,154,3.0,6.0,87,0.00,,,0.01,WeatherCatV1.23B16,2013-12-07 02:17:00,
2013-12-06 21:22:00,68.9,64.9,29.97,South,177,7.0,14.0,87,0.00,,,0.01,WeatherCatV1.23B16,2013-12-07 02:22:00,
2013-12-06 21:27:00,68.9,64.9,29.97,SE,146,4.0,11.0,87,0.00,,,0.01,WeatherCatV1.23B16,2013-12-07 02:27:00,
2013-12-06 21:32:00,68.8,65.1,29.96,South,169,11.0,12.0,88,0.00,,,0.01,WeatherCatV1.23B16,2013-12-07 02:32:00,
2013-12-06 21:37:00,68.8,65.1,29.96,South,176,9.0,11.0,88,0.00,,,0.01,WeatherCatV1.23B16,2013-12-07 02:37:00,
2013-12-06 21:42:00,68.8,65.1,29.96,South,173,6.0,12.0,88,0.00,,,0.01,WeatherCatV1.23B16,2013-12-07 02:42:00,
2013-12-06 21:47:00,68.7,65.0,29.97,SSW,194,10.0,16.0,88,0.00,,,0.01,WeatherCatV1.23B16,2013-12-07 02:47:00,
2013-12-06 21:52:00,68.8,65.1,29.97,SSE,164,7.0,11.0,88,0.00,,,0.01,WeatherCatV1.23B16,2013-12-07 02:52:00,
2013-12-06 21:57:00,68.7,65.0,29.97,South,171,5.0,7.0,88,0.00,,,0.01,WeatherCatV1.23B16,2013-12-07 02:57:00,
2013-12-06 22:02:00,68.6,65.2,29.96,South,184,4.0,9.0,89,0.00,,,0.01,WeatherCatV1.23B16,2013-12-07 03:02:00,
2013-12-06 22:07:00,68.6,65.2,29.96,SSE,167,6.0,10.0,89,0.00,,,0.01,WeatherCatV1.23B16,2013-12-07 03:07:00,
2013-12-06 22:12:00,68.5,65.1,29.96,South,172,9.0,10.0,89,0.00,,,0.01,WeatherCatV1.23B16,2013-12-07 03:12:00,
2013-12-06 22:17:00,68.5,65.4,29.96,SSE,153,6.0,10.0,90,0.00,,,0.01,WeatherCatV1.23B16,2013-12-07 03:17:00,
2013-12-06 22:22:00,68.5,65.4,29.96,South,171,4.0,9.0,90,0.00,,,0.01,WeatherCatV1.23B16,2013-12-07 03:22:00,
2013-12-06 22:27:00,68.5,65.4,29.96,South,180,7.0,13.0,90,0.00,,,0.01,WeatherCatV1.23B16,2013-12-07 03:27:00,
2013-12-06 22:32:00,68.5,65.4,29.97,SSE,158,3.0,7.0,90,0.00,,,0.01,WeatherCatV1.23B16,2013-12-07 03:32:00,
2013-12-06 22:37:00,68.4,65.3,29.97,SSE,166,7.0,9.0,90,0.00,,,0.01,WeatherCatV1.23B16,2013-12-07 03:37:00,
2013-12-06 22:42:00,68.3,65.2,29.97,South,173,4.0,6.0,90,0.00,,,0.01,WeatherCatV1.23B16,2013-12-07 03:42:00,
2013-12-06 22:47:00,68.2,65.2,29.98,South,184,3.0,10.0,90,0.00,,,0.01,WeatherCatV1.23B16,2013-12-07 03:47:00,
2013-12-06 22:52:00,68.2,65.2,29.98,SSE,165,2.0,6.0,90,0.00,,,0.01,WeatherCatV1.23B16,2013-12-07 03:52:00,
2013-12-06 22:57:00,68.2,65.2,29.98,South,190,6.0,6.0,90,0.00,,,0.01,WeatherCatV1.23B16,2013-12-07 03:57:00,
2013-12-06 23:02:00,68.1,65.4,29.99,South,184,3.0,3.0,91,0.00,,,0.01,WeatherCatV1.23B16,2013-12-07 04:02:00,
2013-12-06 23:07:00,68.1,65.4,29.99,South,179,6.0,8.0,91,0.00,,,0.01,WeatherCatV1.23B16,2013-12-07 04:07:00,
2013-12-06 23:12:00,68.0,65.3,29.99,SSE,155,3.0,8.0,91,0.00,,,0.01,WeatherCatV1.23B16,2013-12-07 04:12:00,
2013-12-06 23:17:00,67.9,65.2,29.99,South,173,5.0,10.0,91,0.00,,,0.01,WeatherCatV1.23B16,2013-12-07 04:17:00,
2013-12-06 23:22:00,67.9,65.2,29.99,South,183,3.0,6.0,91,0.00,,,0.01,WeatherCatV1.23B16,2013-12-07 04:22:00,
2013-12-06 23:27:00,68.0,65.3,29.99,South,170,4.0,11.0,91,0.00,,,0.01,WeatherCatV1.23B16,2013-12-07 04:27:00,
2013-12-06 23:32:00,67.9,65.5,30.00,SSE,159,4.0,7.0,92,0.00,,,0.01,WeatherCatV1.23B16,2013-12-07 04:32:00,
2013-12-06 23:37:00,67.9,65.5,30.00,South,175,6.0,6.0,92,0.00,,,0.01,WeatherCatV1.23B16,2013-12-07 04:37:00,
2013-12-06 23:42:00,67.9,65.5,30.00,South,169,5.0,9.0,92,0.00,,,0.01,WeatherCatV1.23B16,2013-12-07 04:42:00,
2013-12-06 23:47:00,67.9,65.5,30.00,South,177,4.0,6.0,92,0.00,,,0.01,WeatherCatV1.23B16,2013-12-07 04:47:00,
2013-12-06 23:52:00,67.9,65.5,30.00,South,175,6.0,9.0,92,0.00,,,0.01,WeatherCatV1.23B16,2013-12-07 04:52:00,
2013-12-06 23:57:00,67.9,65.5,30.00,South,169,5.0,5.0,92,0.00,,,0.01,WeatherCatV1.23B16,2013-12-07 04:57:00,